Weather History for Woensdrecht, Netherlands

Change the Weather History Date:

Wednesday, October 16, 2013

  Actual Average Record
Temperature  
Mean Temperature 44 °F -  
Max Temperature 53 °F 52 °F 64 °F (2001)
Min Temperature 35 °F 41 °F 32 °F (2011)
Degree Days  
Heating Degree Days 21    
Moisture  
Dew Point 46 °F    
Average Humidity 96    
Maximum Humidity 100    
Minimum Humidity 82    
Precipitation  
Precipitation 0.00 in - - ()
Sea Level Pressure  
Sea Level Pressure 29.88 in    
Wind  
Wind Speed 3 mph ()    
Max Wind Speed 10 mph    
Max Gust Speed -    
Visibility 3.2 miles    
Events Fog , Rain    
Averages and records for this station are not official NWS values.
T = Trace of Precipitation, MM = Missing Value Source: Averaged Metar Reports

Daily Weather History Graph

Daily Weather History Graph

Search for Another Location

Airport:

Trip Planner

Search our weather history database for the weather conditions in past years. The results will help you decide how hot, cold, wet, or windy it might be!

Date:

Astronomy

Oct. 16, 2013 Rise Set
Actual Time 8:08 AM CEST 6:47 PM CEST
Civil Twilight 7:34 AM CEST 7:20 PM CEST
Nautical Twilight 6:55 AM CEST 7:59 PM CEST
Astronomical Twilight 6:17 AM CEST 8:37 PM CEST
Moon 5:30 PM CEST (10/16) 5:02 AM CEST (10/16)
Length of Visible Light 11h 46m
Length of Day
10h 38m
Waxing Gibbous, 92% of the Moon is Illuminated
Oct 16
Waxing Gibbous
Oct 19
Full
Oct 27
Last Quarter
Nov 3
New
Nov 10
First Quarter

Hourly Weather History & Observations

Time (CEST) Temp. Windchill Dew Point Humidity Pressure Visibility Wind Dir Wind Speed Gust Speed Precip Events Conditions
12:00 AM 51.8 °F - 50.0 °F 94% 29.80 in 6.2 mi WNW 3.5 mph - N/A   Partly Cloudy
12:17 AM 51.8 °F - 50.0 °F 94% 29.83 in 6.2 mi NNW 3.5 mph - N/A   Scattered Clouds
12:21 AM 50.0 °F - 50.0 °F 100% 29.83 in 6.2 mi North 3.5 mph - N/A   Mostly Cloudy
12:25 AM 50.0 °F - 50.0 °F 100% 29.83 in 6.2 mi North 3.5 mph - N/A   Mostly Cloudy
12:29 AM 50.0 °F - 50.0 °F 100% 29.83 in 5.6 mi North 3.5 mph - N/A   Scattered Clouds
12:33 AM 50.0 °F - 50.0 °F 100% 29.83 in 3.7 mi North 3.5 mph - N/A   Partly Cloudy
12:38 AM 50.0 °F - 50.0 °F 100% 29.83 in - NNE 3.5 mph - N/A   Mist
12:42 AM 48.2 °F - 46.4 °F 93% 29.83 in 1.6 mi NNE 3.5 mph - N/A   Mist
12:46 AM 46.4 °F 44.3 °F 46.4 °F 100% 29.83 in 0.9 mi NNE 4.6 mph - N/A   Mist
12:50 AM 46.4 °F 44.3 °F 46.4 °F 100% 29.83 in 0.3 mi NNE 4.6 mph - N/A Fog Fog
12:55 AM 46.4 °F 45.2 °F 46.4 °F 100% 29.83 in 0.2 mi NNE 3.5 mph - N/A Fog Fog
1:25 AM 46.4 °F - 44.6 °F 93% 29.86 in 0.3 mi North 2.3 mph - N/A Fog Fog
1:40 AM 44.6 °F 43.1 °F 44.6 °F 100% 29.86 in 0.6 mi NNE 3.5 mph - N/A Fog Fog
1:44 AM 44.6 °F 43.1 °F 44.6 °F 100% 29.86 in 0.4 mi North 3.5 mph - N/A Fog Fog
1:55 AM 44.6 °F - 44.6 °F 100% 29.86 in 0.3 mi NE 1.2 mph - N/A Fog Fog
2:25 AM 42.8 °F - 42.8 °F 100% 29.86 in 0.2 mi West 1.2 mph - N/A Fog Fog
2:46 AM 42.8 °F - 42.8 °F 100% 29.89 in 0.7 mi Calm Calm - N/A   Mist
2:50 AM 42.8 °F - 42.8 °F 100% 29.89 in - Calm Calm - N/A Fog Fog
2:55 AM 41.0 °F - 41.0 °F 100% 29.89 in 0.3 mi Calm Calm - N/A Fog Fog
3:25 AM 41.0 °F - 39.2 °F 93% 29.89 in 0.2 mi Calm Calm - N/A Fog Fog
3:55 AM 37.4 °F - 37.4 °F 100% 29.92 in 0.2 mi SW 1.2 mph - N/A Fog Fog
4:08 AM 39.2 °F - 39.2 °F 100% 29.92 in 0.5 mi Calm Calm - N/A Fog Fog
4:12 AM 39.2 °F - 39.2 °F 100% 29.92 in 0.2 mi Calm Calm - N/A Fog Fog
4:25 AM 39.2 °F - 37.4 °F 93% 29.92 in 0.2 mi ENE 1.2 mph - N/A Fog Fog
4:55 AM 37.4 °F - 37.4 °F 100% 29.92 in 0.2 mi Calm Calm - N/A Fog Fog
5:25 AM 37.4 °F - 37.4 °F 100% 29.92 in - South 1.2 mph - N/A Fog Fog
5:28 AM 37.4 °F - 37.4 °F 100% 29.92 in 0.5 mi South 1.2 mph - N/A Fog Fog
5:33 AM 37.4 °F - 37.4 °F 100% 29.92 in 0.4 mi South 1.2 mph - N/A Fog Fog
5:55 AM 37.4 °F - 35.6 °F 93% 29.92 in 0.3 mi ENE 1.2 mph - N/A Fog Fog
6:15 AM 37.4 °F - 37.4 °F 100% 29.92 in 0.5 mi Calm Calm - N/A Fog Fog
6:19 AM 37.4 °F - 37.4 °F 100% 29.92 in 0.4 mi Calm Calm - N/A Fog Fog
6:25 AM 37.4 °F - 37.4 °F 100% 29.92 in 0.3 mi SW 1.2 mph - N/A Fog Fog
6:33 AM 37.4 °F - 37.4 °F 100% 29.92 in 0.7 mi WSW 2.3 mph - N/A   Mist
6:37 AM 37.4 °F - 37.4 °F 100% 29.92 in 1.9 mi SW 1.2 mph - N/A   Mist
6:43 AM 37.4 °F - 37.4 °F 100% 29.92 in 0.9 mi South 1.2 mph - N/A   Mist
6:47 AM 37.4 °F - 37.4 °F 100% 29.92 in 1.4 mi Calm Calm - N/A   Mist
6:49 AM 37.4 °F - 35.6 °F 93% 29.92 in - Calm Calm - N/A Fog Fog
6:55 AM 37.4 °F - 37.4 °F 100% 29.92 in - Calm Calm - N/A Fog Fog
6:59 AM 37.4 °F - 37.4 °F 100% 29.92 in 0.5 mi South 1.2 mph - N/A Fog Fog
7:03 AM 37.4 °F - 35.6 °F 93% 29.92 in 0.4 mi SSW 1.2 mph - N/A Fog Fog
7:07 AM 37.4 °F - 35.6 °F 93% 29.92 in 0.5 mi SW 1.2 mph - N/A Fog Fog
7:21 AM 37.4 °F - 35.6 °F 93% 29.92 in - SW 1.2 mph - N/A Fog Fog
7:25 AM 37.4 °F - 35.6 °F 93% 29.95 in 0.5 mi SSW 1.2 mph - N/A Fog Fog
7:27 AM 37.4 °F - 35.6 °F 93% 29.95 in 1.4 mi SE 1.2 mph - N/A   Mist
7:33 AM 37.4 °F - 35.6 °F 93% 29.95 in 0.7 mi East 1.2 mph - N/A   Mist
7:37 AM 37.4 °F - 37.4 °F 100% 29.95 in 0.4 mi East 1.2 mph - N/A Fog Fog
7:44 AM 35.6 °F - 35.6 °F 100% 29.95 in 0.5 mi Calm Calm - N/A Fog Fog
7:51 AM 37.4 °F - 37.4 °F 100% 29.95 in 0.5 mi East 1.2 mph - N/A Fog Fog
7:55 AM 35.6 °F - 35.6 °F 100% 29.95 in 0.6 mi East 1.2 mph - N/A Fog Fog
7:59 AM 35.6 °F - 35.6 °F 100% 29.95 in 0.4 mi East 1.2 mph - N/A Fog Fog
8:05 AM 35.6 °F - 35.6 °F 100% 29.95 in 0.4 mi East 1.2 mph - N/A Fog Fog
8:25 AM 35.6 °F - 35.6 °F 100% 29.95 in 0.2 mi North 1.2 mph - N/A Fog Fog
8:29 AM 35.6 °F - 35.6 °F 100% 29.95 in 0.2 mi Calm Calm - N/A Fog Fog
8:36 AM 35.6 °F - 35.6 °F 100% 29.95 in 0.5 mi Calm Calm - N/A Fog Fog
8:40 AM 35.6 °F - 35.6 °F 100% 29.95 in 0.3 mi Calm Calm - N/A Fog Fog
8:45 AM 37.4 °F - 37.4 °F 100% 29.95 in 0.9 mi SSW 1.2 mph - N/A   Mist
8:49 AM 37.4 °F - 37.4 °F 100% 29.95 in - South 1.2 mph - N/A   Mist
8:55 AM 39.2 °F - 39.2 °F 100% 29.95 in 0.7 mi South 1.2 mph - N/A   Mist
9:00 AM 39.2 °F - 39.2 °F 100% 29.95 in 1.1 mi South 1.2 mph - N/A   Mist
9:06 AM 39.2 °F - 39.2 °F 100% 29.95 in - SSE 1.2 mph - N/A   Mist
9:07 AM 39.2 °F - 37.4 °F 93% 29.95 in 1.8 mi SE 1.2 mph - N/A   Mist
9:25 AM 39.2 °F - 39.2 °F 100% 29.95 in 1.4 mi Calm Calm - N/A   Partly Cloudy
9:28 AM 41.0 °F - 39.2 °F 93% 29.95 in - WSW 1.2 mph - N/A   Scattered Clouds
9:39 AM 42.8 °F - 42.8 °F 100% 29.95 in - South 1.2 mph - N/A   Partly Cloudy
9:43 AM 42.8 °F - 42.8 °F 100% 29.95 in - South 2.3 mph - N/A   Scattered Clouds
9:47 AM 44.6 °F - 44.6 °F 100% 29.95 in - South 2.3 mph - N/A   Scattered Clouds
9:55 AM 46.4 °F - 46.4 °F 100% 29.95 in - SSE 2.3 mph - N/A   Mostly Cloudy
9:58 AM 46.4 °F - 46.4 °F 100% 29.95 in 3.1 mi SSE 2.3 mph - N/A   Scattered Clouds
10:12 AM 50.0 °F - 50.0 °F 100% 29.95 in 3.7 mi South 2.3 mph - N/A   Mist
10:16 AM 50.0 °F - 48.2 °F 94% 29.95 in 5.0 mi SSW 3.5 mph - N/A   Mist
10:25 AM 50.0 °F - 50.0 °F 100% 29.95 in 5.6 mi South 3.5 mph - N/A   Partly Cloudy
10:37 AM 51.8 °F - 48.2 °F 88% 29.95 in 6.2 mi South 4.6 mph - N/A   Unknown
10:55 AM 51.8 °F - 48.2 °F 88% 29.95 in 6.2 mi South 5.8 mph - N/A   Unknown
11:25 AM 53.6 °F - 50.0 °F 88% 29.95 in 6.2 mi South 4.6 mph - N/A   Unknown
11:46 AM 53.6 °F - 48.2 °F 82% 29.95 in 6.2 mi South 5.8 mph - N/A   Unknown
11:55 AM 53.6 °F - 48.2 °F 82% 29.95 in 6.2 mi South 6.9 mph - N/A   Scattered Clouds
12:25 PM 51.8 °F - 46.4 °F 82% 29.95 in 6.2 mi South 6.9 mph - N/A   Overcast
12:55 PM 51.8 °F - 48.2 °F 88% 29.92 in 6.2 mi South 5.8 mph - N/A   Overcast
1:03 PM 51.8 °F - 48.2 °F 88% 29.92 in 6.2 mi South 5.8 mph - N/A   Overcast
1:25 PM 51.8 °F - 48.2 °F 88% 29.92 in 5.6 mi South 5.8 mph - N/A   Overcast
1:30 PM 51.8 °F - 48.2 °F 88% 29.92 in 4.3 mi South 5.8 mph - N/A   Overcast
1:35 PM 51.8 °F - 48.2 °F 88% 29.92 in 5.0 mi South 5.8 mph - N/A   Overcast
1:36 PM 51.8 °F - 48.2 °F 88% 29.92 in 5.0 mi South 4.6 mph - N/A   Mostly Cloudy
1:48 PM 51.8 °F - 48.2 °F 88% 29.92 in 4.3 mi SSE 5.8 mph - N/A   Scattered Clouds
1:55 PM 51.8 °F - 48.2 °F 88% 29.92 in 5.0 mi SSE 4.6 mph - N/A   Mostly Cloudy
1:59 PM 51.8 °F - 48.2 °F 88% 29.92 in 5.0 mi SE 4.6 mph - N/A   Overcast
2:02 PM 50.0 °F - 48.2 °F 94% 29.92 in 4.3 mi SE 4.6 mph - N/A   Overcast
2:08 PM 50.0 °F - 48.2 °F 94% 29.92 in 5.0 mi SE 4.6 mph - N/A   Overcast
2:10 PM 51.8 °F - 48.2 °F 88% 29.92 in 5.0 mi SE 4.6 mph - N/A   Overcast
2:25 PM 51.8 °F - 48.2 °F 88% 29.92 in 5.0 mi SE 4.6 mph - N/A   Overcast
2:40 PM 51.8 °F - 48.2 °F 88% 29.89 in 5.0 mi SSE 4.6 mph - N/A   Overcast
2:49 PM 51.8 °F - 48.2 °F 88% 29.89 in 4.3 mi SE 4.6 mph - N/A   Mostly Cloudy
2:55 PM 51.8 °F - 50.0 °F 94% 29.89 in 5.0 mi SE 4.6 mph - N/A   Mostly Cloudy
3:04 PM 51.8 °F - 50.0 °F 94% 29.89 in 4.3 mi SE 4.6 mph - N/A   Mostly Cloudy
3:25 PM 51.8 °F - 50.0 °F 94% 29.89 in 4.3 mi SE 3.5 mph - N/A   Overcast
3:38 PM 51.8 °F - 50.0 °F 94% 29.89 in 4.3 mi ESE 4.6 mph - N/A   Mostly Cloudy
3:48 PM 51.8 °F - 50.0 °F 94% 29.89 in 3.7 mi ESE 4.6 mph - N/A   Scattered Clouds
3:55 PM 51.8 °F - 50.0 °F 94% 29.89 in 3.7 mi SE 4.6 mph - N/A   Mostly Cloudy
4:17 PM 51.8 °F - 50.0 °F 94% 29.86 in 4.3 mi SSE 4.6 mph - N/A   Mostly Cloudy
4:18 PM 51.8 °F - 50.0 °F 94% 29.86 in 4.3 mi SSE 5.8 mph - N/A   Mostly Cloudy
4:25 PM 51.8 °F - 50.0 °F 94% 29.86 in 4.3 mi SSE 5.8 mph - N/A   Mostly Cloudy
4:26 PM 51.8 °F - 50.0 °F 94% 29.86 in 4.3 mi SSE 5.8 mph - N/A   Mostly Cloudy
4:34 PM 51.8 °F - 50.0 °F 94% 29.86 in 5.0 mi SSE 4.6 mph - N/A   Mostly Cloudy
4:35 PM 51.8 °F - 50.0 °F 94% 29.86 in 4.3 mi SE 3.5 mph - N/A   Mostly Cloudy
4:45 PM 51.8 °F - 50.0 °F 94% 29.86 in 5.0 mi SE 3.5 mph - N/A   Mostly Cloudy
4:51 PM 51.8 °F - 50.0 °F 94% 29.86 in 4.3 mi ESE 4.6 mph - N/A   Mostly Cloudy
4:55 PM 51.8 °F - 50.0 °F 94% 29.86 in 4.3 mi ESE 3.5 mph - N/A   Mostly Cloudy
5:07 PM 51.8 °F - 50.0 °F 94% 29.86 in 5.0 mi ESE 5.8 mph - N/A   Light Drizzle
5:08 PM 51.8 °F - 50.0 °F 94% 29.86 in 4.3 mi ESE 4.6 mph - N/A Rain Light Rain
5:18 PM 51.8 °F - 50.0 °F 94% 29.86 in 3.7 mi SE 4.6 mph - N/A Rain Light Rain Showers
5:25 PM 51.8 °F - 50.0 °F 94% 29.83 in 3.1 mi SE 4.6 mph - N/A Rain Light Rain Showers
5:27 PM 51.8 °F - 50.0 °F 94% 29.83 in - SE 4.6 mph - N/A Rain Rain Showers
5:32 PM 51.8 °F - 50.0 °F 94% 29.83 in 3.1 mi SE 4.6 mph - N/A Rain Light Rain Showers
5:36 PM 51.8 °F - 51.8 °F 100% 29.83 in - SE 4.6 mph - N/A Rain Light Rain
5:38 PM 51.8 °F - 51.8 °F 100% 29.83 in 3.1 mi ESE 4.6 mph - N/A Rain Light Rain
5:55 PM 51.8 °F - 51.8 °F 100% 29.83 in 3.1 mi SE 5.8 mph - N/A Rain Rain
6:14 PM 51.8 °F - 51.8 °F 100% 29.83 in 3.7 mi SE 4.6 mph - N/A   Drizzle
6:25 PM 51.8 °F - 51.8 °F 100% 29.83 in 3.7 mi SE 4.6 mph - N/A   Drizzle
6:36 PM 51.8 °F - 51.8 °F 100% 29.83 in 5.0 mi SSE 4.6 mph - N/A   Drizzle
6:38 PM 51.8 °F - 51.8 °F 100% 29.83 in 4.3 mi South 3.5 mph - N/A Rain Light Rain
6:42 PM 51.8 °F - 51.8 °F 100% 29.83 in 4.3 mi SSE 3.5 mph - N/A Rain Rain
6:55 PM 51.8 °F - 51.8 °F 100% 29.83 in 3.7 mi SE 4.6 mph - N/A Rain Light Rain
7:10 PM 51.8 °F - 50.0 °F 94% 29.83 in 5.0 mi SE 5.8 mph - N/A   Light Drizzle
7:16 PM 51.8 °F - 50.0 °F 94% 29.80 in 4.3 mi SE 5.8 mph - N/A   Light Drizzle
7:21 PM 51.8 °F - 50.0 °F 94% 29.80 in 5.0 mi SE 5.8 mph - N/A   Light Drizzle
7:25 PM 51.8 °F - 50.0 °F 94% 29.80 in 5.0 mi SE 4.6 mph - N/A   Light Drizzle
7:36 PM 51.8 °F - 50.0 °F 94% 29.80 in 6.2 mi SSE 5.8 mph - N/A   Mostly Cloudy
7:40 PM 51.8 °F - 50.0 °F 94% 29.80 in 6.2 mi SSE 6.9 mph - N/A   Mostly Cloudy
7:46 PM 51.8 °F - 50.0 °F 94% 29.80 in - SSE 6.9 mph - N/A Rain Rain
7:55 PM 51.8 °F - 50.0 °F 94% 29.80 in - SSE 6.9 mph - N/A   Heavy Drizzle
7:56 PM 51.8 °F - 50.0 °F 94% 29.80 in 3.1 mi SSE 8.1 mph - N/A   Heavy Drizzle
8:09 PM 51.8 °F - 50.0 °F 94% 29.80 in - South 6.9 mph - N/A   Drizzle
8:14 PM 51.8 °F - 50.0 °F 94% 29.80 in 2.2 mi South 6.9 mph - N/A   Heavy Drizzle
8:18 PM 51.8 °F - 50.0 °F 94% 29.80 in - South 8.1 mph - N/A   Heavy Drizzle
8:25 PM 50.0 °F - 50.0 °F 100% 29.80 in - South 6.9 mph - N/A   Drizzle
8:39 PM 50.0 °F - 50.0 °F 100% 29.80 in 3.7 mi South 9.2 mph - N/A   Mostly Cloudy
8:50 PM 51.8 °F - 50.0 °F 94% 29.80 in 6.2 mi South 9.2 mph - N/A   Mostly Cloudy
8:55 PM 51.8 °F - 50.0 °F 94% 29.80 in 6.2 mi South 9.2 mph - N/A   Mostly Cloudy
8:58 PM 51.8 °F - 50.0 °F 94% 29.80 in 6.2 mi South 8.1 mph - N/A   Mostly Cloudy
9:00 PM 51.8 °F - 50.0 °F 94% 29.80 in 6.2 mi South 8.1 mph - N/A   Mostly Cloudy
9:25 PM 51.8 °F - 50.0 °F 94% 29.80 in 5.0 mi South 8.1 mph - N/A   Mostly Cloudy
9:55 PM 51.8 °F - 50.0 °F 94% 29.80 in 5.6 mi SSW 9.2 mph - N/A   Mostly Cloudy
10:06 PM 51.8 °F - 51.8 °F 100% 29.80 in 4.3 mi SSW 9.2 mph - N/A   Mostly Cloudy
10:25 PM 53.6 °F - 51.8 °F 94% 29.80 in 5.0 mi SSW 8.1 mph - N/A   Overcast
10:55 PM 53.6 °F - 51.8 °F 94% 29.80 in 4.3 mi SW 9.2 mph - N/A   Overcast
11:00 PM 53.6 °F - 51.8 °F 94% 29.80 in 4.3 mi SW 9.2 mph - N/A   Overcast
11:04 PM 53.6 °F - 51.8 °F 94% 29.80 in 4.3 mi SW 10.4 mph - N/A   Overcast
11:16 PM 53.6 °F - 51.8 °F 94% 29.80 in 3.7 mi SW 9.2 mph - N/A   Mostly Cloudy
11:25 PM 53.6 °F - 51.8 °F 94% 29.80 in 3.7 mi SW 9.2 mph - N/A   Overcast
11:55 PM 53.6 °F - 51.8 °F 94% 29.80 in 3.1 mi SW 9.2 mph - N/A   Partly Cloudy